Location: Unspecified
(0.0000°N, 0.0000°E)
Time: 03:45:01
(UTC+00:00)

Vanguard 2 Rocket - Pass Details

Date: 14 December 2017
Orbit: 556 x 3326 km, 32.9° (Epoch: 17 January)

Event Time Altitude Azimuth Distance (km) Brightness Sun altitude
Rises 15:03:03 0° 231° (SW) 3,023 10.5 38.8°
Reaches altitude 10° 15:05:00 10° 229° (SW) 2,266 10.2 38.3°
Maximum altitude 15:10:12 75° 143° (SE) 1,044 7.8 37.2°
Drops below altitude 10° 15:19:09 10° 59° (ENE) 3,803 9.7 35.3°
Sets 15:23:20 0° 57° (ENE) 5,261 10.3 34.3°
